sat.trackr.live / text

‹ back to catalog

STARLINK-2319

NORAD 47790 · 2021-018D

PAYLOAD ACTIVE UNKNOWN

§ Identity

Operator
Country
US
Launch date
2021-03-11
Launch site
AFETR
Launch vehicle
Mass (kg)
RCS (m²)

Purposes: comms

External: N2YO · Heavens-Above · Gunter

§ Orbital elements

Epoch: 2026-05-25T04:56:42.783072Z

Period
94.01 min
Inclination
53.1574°
Eccentricity
0.0001529
Mean motion
15.31702812 rev/d
Perigee alt
469.7 km
Apogee alt
471.8 km
Semi-major
6,848.9 km
B*
4.9609e-5
RAAN
220.8089°
Arg perigee
85.2215°
Mean anomaly
274.8961°
Rev number
28,882

§ Raw data

STARLINK-23191 47790U 21018D   26145.20605073  .00001174  00000+0  49609-4 0  99942 47790  53.1574 220.8089 0001529  85.2215 274.8961 15.31702812288828

JSON: /api/v1/satellites/47790 · /tle

For live sub-satellite position, see the globe view (requires WebGL).

§ Visibility from observer

Set your observer location to see the next 7 days of passes ≥ 10°. The values pass through the URL so the page stays shareable.

No JS? Fill the form by hand. The geolocation button needs JavaScript.